Find Kosmos-2026

NORAD ID: 20045 Int'l Des: 1989-042 Owner: VMF Country: SU operational
LEOCIRCULARPOLAR

Live-Position

3D-Globus wird geladen...

Über Kosmos-2026

Beschreibung wird geladen...

Nächste Überflüge

Passes for default location (London). Set your location on the main map for personalized predictions.

Höhenverlauf

Loading altitude history...

Zweizeiliger Elementsatz

1 20045U 89042A 26105.95365128 .00000035 00000-0 19270-4 0 9998
2 20045 82.9365 94.3999 0040824 134.1649 280.2750 13.76261414850737
Epoch: 15. Apr. 2026 • Age: 8 hours

Aktueller Status

Höhe 1022.4 km
Geschwindigkeit 7.32 km/s
Subsatellitenpunkt -40.34°S, 136.41°E
Startdatum 7. Juni 1989
Alter 36.8 years
Typ other

Technische Details

Klassifizierung Payload
Masse 800.00 kg
Trockenmasse 800.00 kg
Gesamtmasse 800.00 kg
Länge 5.00 m
Durchmesser 2.10 m
Spannweite 17.00 m
Form Cyl + Ant
Hersteller OAZ
Bus-Typ KAUR-1 11F627
Phasenstatus In Orbit
Besitzer/Staat VMF/SU

Most Searched